Location: Ar Ranvel
(48.3000°N, 4.8833°W)
Time: 14:11:31
(UTC+00:00)

Cosmos 1455 - Pass Details

Date: 16 June 2021
Orbit: 496 x 522 km, 82.5° (Epoch: 29 July)

Event Time Altitude Azimuth Distance (km) Brightness Sun altitude
Rises 23:30:11 0° 350° (N) 2,653 7.6 -17.4°
Reaches altitude 10° 23:32:20 10° 350° (N) 1,757 6.2 -17.5°
Maximum altitude 23:36:12 88° 262° (W) 521 2.1 -17.6°
Enters shadow 23:37:21 44° 174° (S) 720 2.4 -17.7°
